GW3919 Weather Reports


Display with metric or nautical units.
time (UTC)temp
F
wind
direction
speed
MPH
gust
MPH
rain 1hr
in
rain 24hr
in
rain mn
in
humidity
%
barometer
mb
20260902065806 84 273 1.0 3.0 0.00 0.00 0.00 69 1015.5
20260902065301 85 321 2.0 3.0 0.00 0.00 0.00 69 1015.5
20260902064757 85 316 2.0 2.0 0.00 0.00 0.00 68 1015.5
20260902064253 85 298 2.0 3.0 0.00 0.00 0.00 68 1015.4
20260902063749 85 315 0.0 2.0 0.00 0.00 0.00 68 1015.5
20260902063243 85 286 2.0 2.0 0.00 0.00 0.00 68 1015.6
20260902062738 85 264 2.0 3.0 0.00 0.00 0.00 68 1015.5
20260902062232 85 321 0.0 3.0 0.00 0.00 0.00 68 1015.5
20260902061731 85 282 1.0 4.0 0.00 0.00 0.00 68 1015.4
20260902061227 85 296 2.0 3.0 0.00 0.00 0.00 69 1015.6
20260902060724 85 290 1.0 3.0 0.00 0.00 0.00 69 1015.4
20260902060219 85 356 2.0 3.0 0.00 0.00 0.00 69 1015.5
20260902055715 85 301 1.0 3.0 0.00 0.00 0.00 69 1015.4
20260902055211 85 295 1.0 5.0 0.00 0.00 0.00 70 1015.5
20260902054706 86 249 0.0 2.0 0.00 0.00 0.00 70 1015.5
20260902054201 86 249 1.0 3.0 0.00 0.00 0.00 70 1015.4
20260902053656 86 284 0.0 2.0 0.00 0.00 0.00 70 1015.5
20260902053151 86 296 2.0 3.0 0.00 0.00 0.00 70 1015.5
20260902052650 86 287 0.0 3.0 0.00 0.00 0.00 69 1015.5
20260902052146 86 256 0.0 3.0 0.00 0.00 0.00 69 1015.5
20260902051644 86 309 1.0 2.0 0.00 0.00 0.00 69 1015.4
20260902051139 86 285 2.0 4.0 0.00 0.00 0.00 69 1015.5
20260902050634 86 287 2.0 4.0 0.00 0.00 0.00 68 1015.3
20260902050129 87 298 2.0 3.0 0.00 0.00 0.00 68 1015.4
20260902045623 87 323 2.0 3.0 0.00 0.00 0.00 68 1015.3
20260902045115 87 333 0.0 3.0 0.00 0.00 0.00 68 1015.5
20260902044614 87 335 2.0 2.0 0.00 0.00 0.00 67 1015.3
20260902044111 87 249 2.0 3.0 0.00 0.00 0.00 67 1015.2
20260902043606 87 343 1.0 2.0 0.00 0.00 0.00 66 1015.5
20260902043106 87 254 2.0 4.0 0.00 0.00 0.00 66 1015.5
20260902042600 88 319 2.0 3.0 0.00 0.00 0.00 66 1015.1
20260902042055 88 321 2.0 4.0 0.00 0.00 0.00 65 1015.4
20260902041554 88 313 1.0 3.0 0.00 0.00 0.00 65 1015.3
20260902041050 88 295 2.0 4.0 0.00 0.00 0.00 64 1015.3
20260902040544 88 292 2.0 3.0 0.00 0.00 0.00 64 1015.4
20260902040038 89 314 4.0 4.0 0.00 0.00 0.00 63 1015.2
20260902035532 89 254 1.0 4.0 0.00 0.00 0.00 62 1015.3
20260902035027 89 294 3.0 5.0 0.00 0.00 0.00 61 1015.1
20260902034526 90 296 2.0 3.0 0.00 0.00 0.00 60 1015.0
20260902034025 90 296 3.0 6.0 0.00 0.00 0.00 59 1015.0
20260902033525 90 298 3.0 7.0 0.00 0.00 0.00 58 1015.0
20260902033020 89 269 1.0 2.0 0.00 0.00 0.00 60 1014.8
20260902032513 89 252 0.0 2.0 0.00 0.00 0.00 60 1014.7
20260902032008 89 235 1.0 1.0 0.00 0.00 0.00 60 1014.5
20260902031503 89 246 0.0 1.0 0.00 0.00 0.00 59 1014.5
20260902030959 89 255 0.0 1.0 0.00 0.00 0.00 59 1014.5
20260902030454 90 256 0.0 0.0 0.00 0.00 0.00 59 1014.4
20260902025952 90 284 0.0 1.0 0.00 0.00 0.00 58 1014.4
20260902025448 90 206 0.0 2.0 0.00 0.00 0.00 58 1014.4
20260902024943 91 269 0.0 2.0 0.00 0.00 0.00 57 1014.4
20260902024438 91 205 0.0 1.0 0.00 0.00 0.00 57 1014.3
20260902023933 91 301 0.0 2.0 0.00 0.00 0.00 56 1014.3
20260902023429 91 246 0.0 1.0 0.00 0.00 0.00 56 1014.2
20260902022928 91 240 0.0 3.0 0.00 0.00 0.00 56 1014.2
20260902022423 92 272 1.0 3.0 0.00 0.00 0.00 55 1014.0
20260902021920 91 266 1.0 2.0 0.00 0.00 0.00 56 1013.9
20260902021419 92 253 1.0 2.0 0.00 0.00 0.00 55 1013.9
20260902020915 92 239 1.0 2.0 0.00 0.00 0.00 55 1013.7
20260902020411 92 287 2.0 2.0 0.00 0.00 0.00 55 1013.6
20260902015906 92 240 0.0 1.0 0.00 0.00 0.00 54 1013.6
20260902015402 92 310 0.0 2.0 0.00 0.00 0.00 54 1013.5
20260902014857 92 281 2.0 2.0 0.00 0.00 0.00 54 1013.5
20260902014354 92 280 2.0 2.0 0.00 0.00 0.00 54 1013.7
20260902013853 93 269 1.0 1.0 0.00 0.00 0.00 54 1013.4
20260902013348 93 293 1.0 2.0 0.00 0.00 0.00 53 1013.4
20260902012844 93 258 2.0 4.0 0.00 0.00 0.00 53 1013.1
20260902012339 93 250 5.0 5.0 0.00 0.00 0.00 53 1013.3
20260902011835 93 251 1.0 2.0 0.00 0.00 0.00 53 1013.2
20260902011329 93 259 2.0 2.0 0.00 0.00 0.00 53 1013.1
20260902010829 93 266 1.0 1.0 0.00 0.00 0.00 52 1013.2
20260902010324 94 250 1.0 1.0 0.00 0.00 0.00 52 1012.9
20260902005823 94 246 0.0 1.0 0.00 0.00 0.00 52 1012.9
20260902005323 95 242 2.0 2.0 0.00 0.00 0.00 51 1013.2
20260902004818 95 255 0.0 1.0 0.00 0.00 0.00 50 1013.0
20260902004313 95 264 1.0 1.0 0.00 0.00 0.00 50 1013.1
20260902003808 95 273 2.0 2.0 0.00 0.00 0.00 50 1013.2
20260902003303 96 293 2.0 3.0 0.00 0.00 0.00 49 1013.2
20260902002759 97 250 2.0 2.0 0.00 0.00 0.00 48 1013.3
20260902002258 97 292 2.0 2.0 0.00 0.00 0.00 48 1013.2
20260902001754 97 300 0.0 3.0 0.00 0.00 0.00 48 1013.0
20260902001249 97 290 2.0 3.0 0.00 0.00 0.00 48 1013.3
20260902000749 97 250 2.0 2.0 0.00 0.00 0.00 48 1013.3
20260902000244 97 277 1.0 3.0 0.00 0.00 0.00 48 1013.4
20260901235744 96 277 0.0 3.0 0.00 0.00 0.00 49 1013.2
20260901235240 97 299 1.0 4.0 0.00 0.00 0.00 48 1013.2
20260901234733 97 286 1.0 4.0 0.00 0.00 0.00 48 1013.2
20260901234228 98 336 2.0 3.0 0.00 0.00 0.00 48 1013.5
20260901233722 99 279 2.0 3.0 0.00 0.00 0.00 47 1013.5
20260901233218 99 247 2.0 4.0 0.00 0.00 0.00 47 1013.5
20260901232713 97 313 2.0 3.0 0.00 0.00 0.00 48 1013.5
20260901232209 97 283 4.0 5.0 0.00 0.00 0.00 48 1013.7
20260901231705 97 285 1.0 4.0 0.00 0.00 0.00 48 1013.4
20260901231201 97 279 1.0 3.0 0.00 0.00 0.00 48 1013.5
20260901230656 97 280 1.0 3.0 0.00 0.00 0.00 47 1013.6
20260901230156 98 258 3.0 5.0 0.00 0.00 0.00 47 1013.5
20260901225651 98 307 3.0 3.0 0.00 0.00 0.00 47 1013.5
20260901225145 97 255 3.0 5.0 0.00 0.00 0.00 47 1013.5
20260901224642 98 261 2.0 4.0 0.00 0.00 0.00 46 1013.7
20260901224138 98 241 3.0 3.0 0.00 0.00 0.00 46 1013.7
20260901223633 100 267 3.0 4.0 0.00 0.00 0.00 46 1013.7
20260901223128 100 279 3.0 5.0 0.00 0.00 0.00 45 1013.5
20260901222624 99 252 2.0 4.0 0.00 0.00 0.00 45 1013.7
20260901222120 98 265 2.0 3.0 0.00 0.00 0.00 47 1013.8
20260901221616 97 282 4.0 4.0 0.00 0.00 0.00 48 1013.7
20260901221112 97 304 2.0 3.0 0.00 0.00 0.00 48 1013.8
20260901220610 98 258 3.0 4.0 0.00 0.00 0.00 48 1013.8
20260901220110 98 266 2.0 4.0 0.00 0.00 0.00 47 1013.9
20260901215608 99 283 2.0 4.0 0.00 0.00 0.00 47 1013.9
20260901215108 98 271 4.0 4.0 0.00 0.00 0.00 48 1013.7
20260901214606 98 235 3.0 3.0 0.00 0.00 0.00 47 1014.0
20260901214101 98 330 2.0 3.0 0.00 0.00 0.00 47 1013.8
20260901213600 98 296 1.0 4.0 0.00 0.00 0.00 47 1013.9
20260901213055 99 307 2.0 5.0 0.00 0.00 0.00 46 1013.9
20260901212550 99 269 2.0 3.0 0.00 0.00 0.00 46 1013.8
20260901212046 98 305 3.0 4.0 0.00 0.00 0.00 46 1014.2
20260901211541 98 243 2.0 4.0 0.00 0.00 0.00 46 1014.1
20260901211038 99 257 4.0 4.0 0.00 0.00 0.00 45 1014.0
20260901210533 99 277 3.0 4.0 0.00 0.00 0.00 45 1014.4
20260901210029 99 277 3.0 4.0 0.00 0.00 0.00 45 1014.3
20260901205523 100 282 2.0 3.0 0.00 0.00 0.00 45 1014.2
20260901205018 100 276 2.0 5.0 0.00 0.00 0.00 44 1014.2
20260901204515 103 278 3.0 5.0 0.00 0.00 0.00 43 1014.2
20260901204014 102 292 3.0 6.0 0.00 0.00 0.00 43 1014.4
20260901203510 101 288 4.0 12.0 0.00 0.00 0.00 44 1014.3
20260901203004 102 232 2.0 6.0 0.00 0.00 0.00 42 1014.3
20260901202459 102 291 2.0 5.0 0.00 0.00 0.00 43 1014.5
20260901201954 102 266 2.0 3.0 0.00 0.00 0.00 43 1014.5
20260901201449 100 60 0.0 4.0 0.00 0.00 0.00 44 1014.5
20260901200944 101 252 7.0 10.0 0.00 0.00 0.00 44 1014.7
20260901200439 102 249 3.0 5.0 0.00 0.00 0.00 44 1014.6
20260901195938 100 261 2.0 6.0 0.00 0.00 0.00 45 1014.9
20260901195436 102 260 3.0 5.0 0.00 0.00 0.00 44 1014.7
20260901194926 100 202 2.0 6.0 0.00 0.00 0.00 45 1014.8
20260901194420 98 253 2.0 4.0 0.00 0.00 0.00 48 1014.8
20260901193917 98 194 2.0 6.0 0.00 0.00 0.00 47 1015.0
20260901193416 99 200 0.0 4.0 0.00 0.00 0.00 46 1015.0
20260901192916 98 294 2.0 4.0 0.00 0.00 0.00 47 1015.1
20260901192412 99 261 2.0 5.0 0.00 0.00 0.00 46 1015.2
20260901191908 97 180 0.0 2.0 0.00 0.00 0.00 48 1015.2
20260901191403 97 283 3.0 4.0 0.00 0.00 0.00 48 1015.2
20260901190859 97 36 2.0 4.0 0.00 0.00 0.00 48 1015.2
20260901190353 100 323 2.0 5.0 0.00 0.00 0.00 45 1015.5
20260901185851 100 269 2.0 5.0 0.00 0.00 0.00 45 1015.3
20260901185350 100 258 4.0 4.0 0.00 0.00 0.00 45 1015.6
20260901184845 98 224 1.0 3.0 0.00 0.00 0.00 47 1015.8
20260901184341 100 292 2.0 4.0 0.00 0.00 0.00 45 1015.8
20260901183836 99 294 2.0 6.0 0.00 0.00 0.00 45 1015.8
20260901183335 100 262 4.0 6.0 0.00 0.00 0.00 44 1016.2
20260901182832 100 203 3.0 4.0 0.00 0.00 0.00 45 1016.1
20260901182332 99 261 3.0 5.0 0.00 0.00 0.00 47 1016.2
20260901181827 98 159 4.0 5.0 0.00 0.00 0.00 47 1016.5
20260901181321 97 198 2.0 2.0 0.00 0.00 0.00 49 1016.4
20260901180820 97 264 3.0 5.0 0.00 0.00 0.00 49 1016.6
20260901180320 99 296 3.0 5.0 0.00 0.00 0.00 48 1016.7
20260901175819 98 277 3.0 5.0 0.00 0.00 0.00 49 1016.7
20260901175314 97 160 0.0 4.0 0.00 0.00 0.00 49 1016.7
20260901174809 97 257 4.0 5.0 0.00 0.00 0.00 50 1016.9
20260901174304 95 230 2.0 4.0 0.00 0.00 0.00 52 1016.9
20260901173800 95 113 1.0 2.0 0.00 0.00 0.00 51 1016.9
20260901173255 97 291 3.0 3.0 0.00 0.00 0.00 50 1017.2
20260901172751 97 172 2.0 2.0 0.00 0.00 0.00 51 1017.0
20260901172250 96 254 2.0 3.0 0.00 0.00 0.00 52 1016.9
20260901171748 96 317 2.0 5.0 0.00 0.00 0.00 52 1017.2
20260901171248 96 253 4.0 5.0 0.00 0.00 0.00 52 1017.1
20260901170746 95 317 4.0 4.0 0.00 0.00 0.00 53 1017.3
20260901170241 94 268 3.0 4.0 0.00 0.00 0.00 54 1017.2
20260901165740 94 250 2.0 3.0 0.00 0.00 0.00 54 1017.4
20260901165235 94 130 0.0 2.0 0.00 0.00 0.00 54 1017.6
20260901164731 94 142 4.0 6.0 0.00 0.00 0.00 55 1017.7
20260901164227 96 102 1.0 5.0 0.00 0.00 0.00 52 1017.6
20260901163722 97 284 0.0 4.0 0.00 0.00 0.00 52 1017.9
20260901163221 95 284 1.0 4.0 0.00 0.00 0.00 54 1017.9
20260901162716 95 250 3.0 3.0 0.00 0.00 0.00 53 1017.7
20260901162215 97 267 3.0 7.0 0.00 0.00 0.00 52 1017.8
20260901161714 96 306 0.0 3.0 0.00 0.00 0.00 54 1017.6
20260901161209 97 263 0.0 3.0 0.00 0.00 0.00 53 1017.6
20260901160706 95 145 2.0 5.0 0.00 0.00 0.00 55 1017.7
20260901160201 95 329 1.0 6.0 0.00 0.00 0.00 56 1017.7
20260901155659 94 195 4.0 5.0 0.00 0.00 0.00 56 1017.7
20260901155155 93 206 2.0 5.0 0.00 0.00 0.00 57 1017.6
20260901154650 94 305 3.0 4.0 0.00 0.00 0.00 56 1017.7
20260901154144 94 66 2.0 2.0 0.00 0.00 0.00 57 1017.6
20260901153640 95 267 2.0 4.0 0.00 0.00 0.00 56 1017.7
20260901153133 95 268 2.0 2.0 0.00 0.00 0.00 57 1017.6
20260901152628 93 315 0.0 4.0 0.00 0.00 0.00 58 1017.7
20260901152126 93 146 0.0 3.0 0.00 0.00 0.00 59 1017.6
20260901151623 93 126 5.0 6.0 0.00 0.00 0.00 59 1017.7
20260901151122 93 334 4.0 4.0 0.00 0.00 0.00 59 1017.7
20260901150615 92 326 1.0 2.0 0.00 0.00 0.00 60 1017.8
20260901150113 91 340 2.0 4.0 0.00 0.00 0.00 62 1017.6
20260901145607 91 72 2.0 4.0 0.00 0.00 0.00 62 1017.8
20260901145106 91 267 1.0 2.0 0.00 0.00 0.00 62 1018.0
20260901144602 91 262 2.0 3.0 0.00 0.00 0.00 62 1017.9
20260901144057 91 273 0.0 3.0 0.00 0.00 0.00 62 1017.8
20260901143552 91 74 1.0 2.0 0.00 0.00 0.00 63 1017.8
20260901143049 91 264 0.0 4.0 0.00 0.00 0.00 64 1017.8
20260901142544 89 252 2.0 2.0 0.00 0.00 0.00 66 1017.9
20260901142043 89 191 0.0 3.0 0.00 0.00 0.00 65 1017.8
20260901141538 90 91 2.0 2.0 0.00 0.00 0.00 65 1017.9
20260901141033 90 228 2.0 2.0 0.00 0.00 0.00 64 1017.7
20260901140532 89 209 0.0 1.0 0.00 0.00 0.00 65 1017.6
20260901140027 89 275 0.0 4.0 0.00 0.00 0.00 66 1017.9
20260901135525 90 240 1.0 2.0 0.00 0.00 0.00 65 1017.9
20260901135021 89 215 0.0 2.0 0.00 0.00 0.00 67 1017.8
20260901134518 90 327 2.0 2.0 0.00 0.00 0.00 65 1018.1
20260901134012 88 246 2.0 2.0 0.00 0.00 0.00 67 1017.9
20260901133511 87 283 1.0 3.0 0.00 0.00 0.00 67 1017.7
20260901133009 88 250 0.0 2.0 0.00 0.00 0.00 66 1017.8
20260901132509 89 281 1.0 2.0 0.00 0.00 0.00 65 1017.9
20260901132009 87 127 0.0 1.0 0.00 0.00 0.00 68 1017.9
20260901131503 86 330 1.0 2.0 0.00 0.00 0.00 69 1017.8
20260901130959 86 249 0.0 2.0 0.00 0.00 0.00 69 1017.8
20260901130453 85 257 0.0 2.0 0.00 0.00 0.00 70 1017.6
20260901125951 85 258 2.0 4.0 0.00 0.00 0.00 70 1017.7
20260901125450 83 224 0.0 2.0 0.00 0.00 0.00 72 1017.6
20260901124945 82 144 1.0 1.0 0.00 0.00 0.00 74 1017.4
20260901124440 82 219 2.0 2.0 0.00 0.00 0.00 75 1017.4
20260901123935 81 279 0.0 2.0 0.00 0.00 0.00 76 1017.3
20260901123430 81 296 0.0 2.0 0.00 0.00 0.00 76 1017.2
20260901122928 80 275 1.0 2.0 0.00 0.00 0.00 77 1017.3
20260901122428 80 269 0.0 2.0 0.00 0.00 0.00 78 1017.1
20260901121927 79 124 0.0 1.0 0.00 0.00 0.00 79 1016.8
20260901121422 79 214 1.0 2.0 0.00 0.00 0.00 79 1016.9
20260901120918 79 192 0.0 2.0 0.00 0.00 0.00 79 1016.8
20260901120417 79 242 0.0 1.0 0.00 0.00 0.00 78 1017.0
20260901115913 80 214 0.0 1.0 0.00 0.00 0.00 78 1016.6
20260901115413 80 246 0.0 0.0 0.00 0.00 0.00 77 1016.8
20260901114911 80 225 0.0 2.0 0.00 0.00 0.00 77 1016.7
20260901114406 80 62 0.0 0.0 0.00 0.00 0.00 77 1016.6
20260901113904 80 255 0.0 0.0 0.00 0.00 0.00 76 1016.6
20260901113403 80 215 0.0 2.0 0.00 0.00 0.00 76 1016.5
20260901112859 81 25 0.0 1.0 0.00 0.00 0.00 75 1016.5
20260901112354 81 265 0.0 2.0 0.00 0.00 0.00 75 1016.5
20260901111848 81 307 0.0 2.0 0.00 0.00 0.00 75 1016.7
20260901111347 81 325 0.0 2.0 0.00 0.00 0.00 74 1016.7
20260901110845 81 157 0.0 1.0 0.00 0.00 0.00 74 1016.4
20260901110341 81 324 1.0 1.0 0.00 0.00 0.00 74 1016.2
20260901105837 81 294 1.0 1.0 0.00 0.00 0.00 74 1016.4
20260901105332 81 284 0.0 0.0 0.00 0.00 0.00 74 1016.5
20260901104829 81 217 0.0 1.0 0.00 0.00 0.00 74 1016.4
20260901104324 81 257 0.0 1.0 0.00 0.00 0.00 73 1016.3
20260901103819 81 269 0.0 1.0 0.00 0.00 0.00 73 1016.4
20260901103319 81 277 0.0 1.0 0.00 0.00 0.00 72 1016.3
20260901102814 82 269 0.0 0.0 0.00 0.00 0.00 72 1016.5
20260901102308 82 310 0.0 1.0 0.00 0.00 0.00 72 1016.4
20260901101803 82 279 0.0 1.0 0.00 0.00 0.00 72 1016.5
20260901101258 82 236 1.0 1.0 0.00 0.00 0.00 71 1016.5
20260901100757 82 204 1.0 1.0 0.00 0.00 0.00 71 1016.5
20260901100252 82 229 0.0 1.0 0.00 0.00 0.00 71 1016.3
20260901095750 82 164 0.0 0.0 0.00 0.00 0.00 71 1016.4
20260901095248 82 249 0.0 1.0 0.00 0.00 0.00 70 1016.5
20260901094743 82 245 0.0 1.0 0.00 0.00 0.00 70 1016.6
20260901094238 82 309 0.0 1.0 0.00 0.00 0.00 69 1016.4
20260901093733 82 297 0.0 1.0 0.00 0.00 0.00 69 1016.5
20260901093232 82 304 0.0 0.0 0.00 0.00 0.00 69 1016.5
20260901092728 82 233 0.0 0.0 0.00 0.00 0.00 69 1016.4
20260901092224 82 333 0.0 0.0 0.00 0.00 0.00 69 1016.4
20260901091719 83 230 0.0 0.0 0.00 0.00 0.00 68 1016.5
20260901091214 83 231 0.0 1.0 0.00 0.00 0.00 68 1016.6
20260901090709 83 277 1.0 1.0 0.00 0.00 0.00 68 1016.4
20260901090204 83 222 0.0 1.0 0.00 0.00 0.00 68 1016.4
20260901085700 83 284 0.0 0.0 0.00 0.00 0.00 67 1016.4
20260901085155 83 244 0.0 1.0 0.00 0.00 0.00 67 1016.4
20260901084652 83 289 0.0 1.0 0.00 0.00 0.00 67 1016.3
20260901084148 83 315 0.0 2.0 0.00 0.00 0.00 67 1016.5
20260901083647 83 227 1.0 2.0 0.00 0.00 0.00 67 1016.1
20260901083146 84 246 1.0 2.0 0.00 0.00 0.00 66 1016.1
20260901082640 84 275 0.0 1.0 0.00 0.00 0.00 66 1016.0
20260901082136 84 303 0.0 2.0 0.00 0.00 0.00 66 1016.0
20260901081631 84 269 0.0 1.0 0.00 0.00 0.00 66 1016.3
20260901081125 84 255 0.0 1.0 0.00 0.00 0.00 65 1016.2
20260901080620 84 321 0.0 2.0 0.00 0.00 0.00 65 1016.3
20260901080119 84 240 0.0 2.0 0.00 0.00 0.00 65 1016.2
20260901075614 84 250 1.0 2.0 0.00 0.00 0.00 64 1016.2
20260901075114 84 228 0.0 2.0 0.00 0.00 0.00 64 1016.3
20260901074613 84 269 0.0 2.0 0.00 0.00 0.00 64 1016.2
20260901074108 84 89 0.0 2.0 0.00 0.00 0.00 63 1016.2
20260901073605 84 211 0.0 2.0 0.00 0.00 0.00 63 1016.3
20260901073059 85 293 1.0 1.0 0.00 0.00 0.00 62 1016.1
20260901072555 85 269 0.0 2.0 0.00 0.00 0.00 62 1016.1
20260901072049 85 268 0.0 2.0 0.00 0.00 0.00 61 1016.2
20260901071544 85 239 1.0 2.0 0.00 0.00 0.00 61 1016.3
20260901071042 85 281 1.0 3.0 0.00 0.00 0.00 61 1015.9
20260901070538 86 279 2.0 4.0 0.00 0.00 0.00 61 1015.8
20260901070033 86 268 2.0 2.0 0.00 0.00 0.00 61 1015.8